Weather History for Pensacola NAS, FL

Change the Weather History Date:

Sunday, December 2, 2012

  Actual Average Record
Temperature  
Mean Temperature 62 °F -  
Max Temperature 72 °F 65 °F 76 °F (1998)
Min Temperature 51 °F 47 °F 32 °F (2008)
Degree Days  
Heating Degree Days 4    
Growing Degree Days 12 (Base 50)    
Moisture  
Dew Point 58 °F    
Average Humidity 95    
Maximum Humidity 100    
Minimum Humidity 73    
Precipitation  
Precipitation 0.00 in - - ()
Sea Level Pressure  
Sea Level Pressure 30.25 in    
Wind  
Wind Speed 3 mph (ENE)    
Max Wind Speed 12 mph    
Max Gust Speed -    
Visibility 6 miles    
Events Fog , Rain    
Averages and records for this station are not official NWS values.
T = Trace of Precipitation, MM = Missing Value Source: NWS Daily Summary

Daily Weather History Graph

Daily Weather History Graph

Search for Another Location

Airport:

Trip Planner

Search our weather history database for the weather conditions in past years. The results will help you decide how hot, cold, wet, or windy it might be!

Date:

Astronomy

Dec. 02, 2012 Rise Set
Actual Time 6:29 AM CST 4:48 PM CST
Civil Twilight 6:03 AM CST 5:14 PM CST
Nautical Twilight 5:33 AM CST 5:44 PM CST
Astronomical Twilight 5:04 AM CST 6:13 PM CST
Moon 8:28 PM CST (12/2) 9:24 AM CST (12/2)
Length of Visible Light 11h 11m
Length of Day
10h 18m
Waning Gibbous, 85% of the Moon is Illuminated
Dec 2
Waning Gibbous
Dec 6
Last Quarter
Dec 13
New
Dec 19
First Quarter
Dec 28
Full

Hourly Weather History & Observations

Time (CST) Temp. Dew Point Humidity Pressure Visibility Wind Dir Wind Speed Gust Speed Precip Events Conditions
12:56 AM 53.1 °F 52.0 °F 96% 30.25 in 8.0 mi Calm Calm - 0.00 in   Clear
1:05 AM 53.6 °F 53.6 °F 100% 30.24 in 1.5 mi Calm Calm - N/A   Clear
1:19 AM 51.8 °F 51.8 °F 100% 30.24 in 3.0 mi Calm Calm - N/A   Clear
1:56 AM 52.0 °F 52.0 °F 100% 30.25 in 7.0 mi Calm Calm - N/A   Clear
2:56 AM 53.1 °F 53.1 °F 100% 30.25 in 8.0 mi NE 3.5 mph - 0.00 in Rain Light Rain
3:56 AM 55.0 °F 55.0 °F 100% 30.25 in 10.0 mi NE 4.6 mph - 0.00 in   Clear
4:56 AM 55.0 °F 55.0 °F 100% 30.26 in 10.0 mi NNE 3.5 mph - 0.00 in   Clear
5:56 AM 54.0 °F 54.0 °F 100% 30.28 in 10.0 mi NNE 4.6 mph - N/A   Clear
6:56 AM 54.0 °F 54.0 °F 100% 30.29 in 10.0 mi NNE 3.5 mph - 0.00 in   Clear
7:56 AM 60.1 °F 59.0 °F 96% 30.31 in 10.0 mi ENE 4.6 mph - N/A   Clear
8:56 AM 64.9 °F 62.1 °F 90% 30.32 in 10.0 mi ENE 8.1 mph - N/A   Partly Cloudy
9:56 AM 66.9 °F 60.1 °F 79% 30.32 in 10.0 mi ENE 6.9 mph - N/A   Partly Cloudy
10:56 AM 71.1 °F 62.1 °F 73% 30.30 in 10.0 mi East 9.2 mph - N/A   Partly Cloudy
11:56 AM 72.0 °F 63.0 °F 73% 30.28 in 10.0 mi ENE 11.5 mph - N/A   Scattered Clouds
12:56 PM 72.0 °F 63.0 °F 73% 30.25 in 10.0 mi East 10.4 mph - N/A   Mostly Cloudy
1:56 PM 69.1 °F 63.0 °F 81% 30.24 in 10.0 mi East 8.1 mph - N/A   Mostly Cloudy
2:56 PM 70.0 °F 64.0 °F 81% 30.23 in 10.0 mi ESE 8.1 mph - N/A   Mostly Cloudy
3:56 PM 68.0 °F 64.9 °F 90% 30.23 in 10.0 mi East 6.9 mph - N/A   Mostly Cloudy
4:56 PM 66.0 °F 64.0 °F 93% 30.23 in 10.0 mi East 3.5 mph - N/A   Mostly Cloudy
5:30 PM 66.2 °F 64.4 °F 94% 30.23 in 10.0 mi ESE 5.8 mph - N/A   Mostly Cloudy
5:56 PM 64.9 °F 63.0 °F 93% 30.24 in 10.0 mi East 4.6 mph - N/A   Mostly Cloudy
6:56 PM 62.1 °F 61.0 °F 96% 30.24 in 6.0 mi Calm Calm - 0.00 in Rain Light Rain
7:21 PM 60.8 °F 60.8 °F 100% 30.24 in 2.5 mi Calm Calm - 0.00 in   Mostly Cloudy
7:28 PM 60.8 °F 60.8 °F 100% 30.24 in 1.0 mi North 3.5 mph - 0.00 in   Scattered Clouds
7:46 PM 60.8 °F 60.8 °F 100% 30.24 in 3.0 mi Calm Calm - 0.00 in   Partly Cloudy
7:48 PM 59.0 °F 59.0 °F 100% 30.24 in 1.8 mi Calm Calm - 0.00 in   Partly Cloudy
7:51 PM 57.2 °F 57.2 °F 100% 30.24 in 0.8 mi Calm Calm - 0.00 in   Mist
7:56 PM 57.9 °F 57.9 °F 100% 30.25 in 0.5 mi Calm Calm - 0.00 in Fog Fog
8:09 PM 57.2 °F 57.2 °F 100% 30.24 in 0.2 mi Calm Calm - N/A Fog Fog
8:33 PM 57.2 °F 57.2 °F 100% 30.24 in 0.2 mi Calm Calm - 0.00 in Fog , Rain Light Rain
8:56 PM 57.0 °F 57.0 °F 100% 30.25 in 0.2 mi Calm Calm - 0.00 in Fog Fog
9:09 PM 55.4 °F 55.4 °F 100% 30.24 in 0.2 mi Calm Calm - N/A Fog Fog
9:39 PM 55.4 °F 55.4 °F 100% 30.24 in 0.5 mi Calm Calm - N/A Fog Fog
9:46 PM 55.4 °F 55.4 °F 100% 30.24 in 0.2 mi Calm Calm - 0.00 in Fog , Rain Light Rain
9:56 PM 54.0 °F 54.0 °F 100% 30.25 in 0.2 mi Calm Calm - 0.00 in Fog Fog
10:56 PM 55.0 °F 55.0 °F 100% 30.25 in 0.2 mi Calm Calm - N/A Fog Fog
11:56 PM 54.0 °F 54.0 °F 100% 30.24 in 0.2 mi Calm Calm - 0.00 in Fog Fog